Location: Koslow
(50.3020°N, 18.5663°E)
Time: 04:27:42
(UTC+00:00)

STARLINK-1357 - Pass Details

Date: 22 June 2021
Orbit: 546 x 548 km, 53.1° (Epoch: 03 August)

Event Time Altitude Azimuth Distance (km) Brightness Sun altitude
Rises 07:39:13 0° 286° (WNW) 2,715 6.7 44.8°
Reaches altitude 10° 07:42:16 10° 262° (W) 1,817 6.0 45.3°
Drops below altitude 10° 07:46:53 10° 194° (SSW) 1,810 6.4 45.9°
Enters shadow 08:27:32 -75° 107° (ESE) 12,872 10.2 51.8°
Exits shadow 09:01:29 -37° 324° (NW) 8,512 9.0 56.1°
Maximum altitude 23:21:26 15° 132° (SE) 1,528 5.6 -15.9°
